Regional Weather Roundup
Issued by NWS Columbia, SC

Home | Current Version | Previous Version | Text Only | Print | Product List | Glossary On
Versions: 1 2 3 4 5 6 7 8 9 10 11 12 13 14 15 16 17 18 19 20 21 22 23 24 25 26 27 28 29 30 31 32 33 34 35 36 37 38 39 40 41 42 43 44 45 46 47 48 49 50
000
ASUS42 KCAE 160010
RWRCAE
REGIONAL WEATHER ROUNDUP
NATIONAL WEATHER SERVICE COLUMBIA SC
800 PM EDT MON SEP 15 2014

NOTE: "FAIR" INDICATES FEW OR NO CLOUDS BELOW 12,000 FEET WITH NO
SIGNIFICANT WEATHER AND/OR OBSTRUCTIONS TO VISIBILITY.

NOT ALL STATIONS ARE QUALITY CONTROLLED BY THE NATIONAL
WEATHER SERVICE. USE DATA WITH CAUTION...ESPECIALLY
DEWPOINT OBSERVATIONS.

SCZ001>056-GAZ040-063>065-077-160100-
...UPSTATE SOUTH CAROLINA...

CITY           SKY/WX    TMP DP  RH WIND       PRES   REMARKS
ANDERSON       CLOUDY    73  69  87 S3        30.15R
6HR MIN TEMP:  72; 6HR MAX TEMP:  75;

LIBERTY        LGT RAIN  71  70  96 MISG      30.15S
6HR MIN TEMP:  62; 6HR MAX TEMP:  90;

SPARTANBURG    FAIR      73  72  94 CALM      30.15R
CLEMSON        CLOUDY    74  68  81 CALM      30.16R
6HR MIN TEMP:  73; 6HR MAX TEMP:  76;

GREENVILLE     LGT RAIN  72  67  84 S5        30.16R
6HR MIN TEMP:  72; 6HR MAX TEMP:  74; 6HR PCP: TRACE;

GREENWOOD      CLOUDY    74  69  85 CALM      30.15S
6HR MIN TEMP:  72; 6HR MAX TEMP:  75;

GREER          CLOUDY    72  68  87 S3        30.14R
6HR MIN TEMP:  72; 6HR MAX TEMP:  74;

ROCK HILL      MOCLDY    72  68  87 CALM      30.16R
6HR MIN TEMP:  72; 6HR MAX TEMP:  75;

LAURENS        CLOUDY    72 N/A N/A CALM      30.16R


...CENTRAL SOUTH CAROLINA...

CITY           SKY/WX    TMP DP  RH WIND       PRES   REMARKS
COLUMBIA APT   CLOUDY    75  69  81 CALM      30.13R
6HR MIN TEMP:  73; 6HR MAX TEMP:  76; 6HR PCP: TRACE;

COLUMBIA OWENS CLOUDY    75  69  81 CALM      30.14S
6HR MIN TEMP:  73; 6HR MAX TEMP:  76; 6HR PCP:  0.01;

DARLINGTON     CLOUDY    73  66  78 N3        30.15R
6HR MIN TEMP:  73; 6HR MAX TEMP:  77;

FLORENCE       CLOUDY    75  70  84 SE6       30.13R
6HR MIN TEMP:  75; 6HR MAX TEMP:  79;

MCENTIRE ANGB  CLOUDY    74  72  93 N1        30.14R FOG
6HR MIN TEMP:  72; 6HR MAX TEMP:  75; 6HR PCP:  0.02;

ORANGEBURG     CLOUDY    76  71  85 NE3       30.13R
6HR MIN TEMP:  75; 6HR MAX TEMP:  79; 6HR PCP:  0.03;

SUMTER SHAW    CLOUDY    75  70  83 CALM      30.12R
6HR MIN TEMP:  74; 6HR MAX TEMP:  78; 6HR PCP: TRACE;

NEWBERRY       CLOUDY    73  73 100 CALM      30.17R
AIKEN          CLOUDY    73  73 100 CALM      30.17S
BARNWELL       CLOUDY    75  73  94 NE5       30.13R
MANNING        CLOUDY    77 N/A N/A CALM      30.13R
CAMDEN         CLOUDY    73  70  88 CALM      30.15R
LANCASTER      CLOUDY    73  73 100 CALM      30.14F
WINNSBORO      CLOUDY    72  70  94 CALM      30.14S


...EASTERN AND COASTAL SOUTH CAROLINA...

CITY           SKY/WX    TMP DP  RH WIND       PRES   REMARKS
MYRTLE BEACH   MOCLDY    77  70  78 E7        30.12S
N MYRTLE BCH   MOCLDY    73  69  87 N3        30.12R
6HR MIN TEMP:  73; 6HR MAX TEMP:  77;

CONWAY         FAIR      72 N/A N/A CALM      30.13R HAZE
MARION         CLOUDY    73  70  88 CALM      30.14R
HARTSVILLE     CLOUDY    75  59  57 CALM      30.15R
FLORENCE       CLOUDY    75  70  84 SE6       30.13R
6HR MIN TEMP:  75; 6HR MAX TEMP:  79;

DARLINGTON     CLOUDY    73  66  78 N3        30.15R
6HR MIN TEMP:  73; 6HR MAX TEMP:  77;

CHARLESTON APT RAIN      77  74  90 CALM      30.12R
6HR MIN TEMP:  75; 6HR MAX TEMP:  89; 6HR PCP:  1.01;

MOUNT PLEASANT LGT RAIN  75  75 100 CALM      30.12R
WALTERBORO     CLOUDY    77 N/A N/A E6        30.13R
BEAUFORT       CLOUDY    78  73  84 NW8       30.11R
6HR MIN TEMP:  79; 6HR MAX TEMP:  86; 6HR PCP: TRACE;



...EASTERN GEORGIA...

CITY           SKY/WX    TMP DP  RH WIND       PRES   REMARKS
AUGUSTA BUSH F CLOUDY    75  72  90 CALM      30.12R
6HR MIN TEMP:  73; 6HR MAX TEMP:  76;

AUGUSTA DANIEL CLOUDY    76  72  87 CALM      30.14R
6HR MIN TEMP:  73; 6HR MAX TEMP:  77;

THOMSON        CLOUDY    76  76 100 CALM      30.18S
6HR MIN TEMP:  75; 6HR MAX TEMP:  76;

WASHINGTON     CLOUDY    77  77 100 CALM      30.14S
SYLVANIA       CLEAR     76  75  96 CALM      30.11S
6HR MIN TEMP:  76; 6HR MAX TEMP:  83;

SAVANNAH       MOCLDY    76  73  91 N3        30.12R
6HR MIN TEMP:  75; 6HR MAX TEMP:  88; 6HR PCP:  0.25;



...SOUTHERN NORTH CAROLINA...

CITY           SKY/WX    TMP DP  RH WIND       PRES   REMARKS
CHARLOTTE      CLOUDY    72  66  81 CALM      30.16R
6HR MIN TEMP:  72; 6HR MAX TEMP:  75;

MONROE         CLOUDY    70  67  90 E3        30.14S
6HR MIN TEMP:  70; 6HR MAX TEMP:  77; 6HR PCP: TRACE;

WADESBORO      CLOUDY    72  68  88 CALM      30.14S FOG
6HR MIN TEMP:  72; 6HR MAX TEMP:  75;

ROCKINGHAM     CLOUDY    72  68  87 CALM      30.15R
6HR MIN TEMP:  72; 6HR MAX TEMP:  74;

RUTHERFORDTON  LGT RAIN  69  67  94 E7        30.16S
6HR MIN TEMP:  69; 6HR MAX TEMP:  74; 6HR PCP:  0.04;

ASHEVILLE      CLOUDY    68  66  93 CALM      30.19S
6HR MIN TEMP:  67; 6HR MAX TEMP:  77; 6HR PCP:  0.65;


$$


USA.gov is the U.S. government's official web portal to all federal, state and local government web resources and services.